Location: Bun Machan
(52.1403°N, 7.3744°W)
Time: 08:34:19
(UTC+00:00)

deb Kosmos-1763 - Pass Details

Date: 14 July 2020
Orbit: 464 x 480 km, 74.0° (Epoch: 05 August)

Event Time Altitude Azimuth Distance (km) Brightness Sun altitude
Exits shadow 03:23:19 - 201° (SSW) 1,683 6.2 -7.7°
Reaches altitude 10° 03:23:29 10° 201° (SSW) 1,620 6.1 -7.6°
Maximum altitude 03:27:03 84° 114° (ESE) 478 4.0 -7.3°
Drops below altitude 10° 03:30:40 10° 26° (NNE) 1,642 8.3 -6.9°
Sets 03:32:48 0° 26° (NNE) 2,527 9.6 -6.7°
